Location: Banff
(51.1667°N, 115.5667°W)
Time: 09:56:02
(UTC+00:00)

SR - Pass Details

Date: 30 November 2020
Orbit: 575 x 880 km, 66.7° (Epoch: 19 January)

Event Time Altitude Azimuth Distance (km) Brightness Sun altitude
Rises 00:29:18 0° 154° (SSE) 2,811 ? -7.6°
Reaches altitude 10° 00:33:34 10° 112° (ESE) 1,971 ? -8.2°
Maximum altitude 00:34:17 10° 103° (ESE) 1,960 ? -8.4°
Drops below altitude 10° 00:35:00 10° 94° (E) 1,995 ? -8.5°
Enters shadow 00:35:39 - 86° (E) 2,066 ? -8.5°
